Other Public Products
Issued by NWS Charleston, SC

Home | Current Version | Previous Version | Text Only | Print | Product List | Glossary On
Versions: 1 2 3 4 5 6 7 8 9 10 11 12 13 14 15 16 17 18 19 20 21 22 23 24 25 26 27 28 29 30 31 32 33 34 35 36 37 38 39 40 41 42 43 44 45 46 47 48 49 50
226
FPUS82 KCHS 200327
OPUCHS

TEST...KCHS/KSAV Gateway Observations...TEST
National Weather Service Charleston SC
1100 PM EDT SAT OCT 19 2019

NOTE: "fair" indicates few or no clouds below 12,000 feet with no
significant weather and/or obstructions to visibility.

SCZ050-WAZ558-NCZ071-TXZ119-213-PAZ071-DCZ001-FLZ074-172-MI076-
NYZ176-178-MAZ016-IL014-TNZ027-NJZ106-GAZ044-MD014-200400-

...Gateway Observations for Charleston International...

CITY           SKY/WX    TMP DP  RH WIND       PRES   REMARKS
Chas Airport   CLOUDY    72  71  97 SE14      29.77S
Seattle        MOCLDY    50  42  74 SW12      29.96R
Charlotte      RAIN      56  53  90 NE10      29.87F FOG
Dallas DFW     CLEAR     68  55  63 NW8       29.78R
Dallas Love    CLEAR     71  54  54 N3        29.79R
Philladelphia  MOCLDY    52  45  77 SE3       30.04F
Wash National  CLOUDY    58  47  66 S3        30.02S
Baltimore      MOCLDY    52  47  83 CALM      30.01S
Miami          MOCLDY    83  76  79 S8        29.91R HX  91
Detroit        MOCLDY    50  44  80 CALM      29.85F
Newark         MOCLDY    53  39  59 S3        30.05R
Laguardia      MOCLDY    56  38  50 S5        30.04S
J F K          MOCLDY    54  43  66 SW10      30.06R
Boston Logan   FAIR      53  36  52 W3        30.04S
Ft. Lauderdale FAIR      82  76  81 S9        29.91R
Chicago O`Hare CLOUDY    60  46  59 SW6       29.74R
Chicago Midway CLOUDY    61  44  53 S6        29.74S
Houston Bush   PTCLDY    80  72  76 SW10G17   29.76R
Houston Hobby  FAIR      78  73  84 S10       29.76R
Nashville      CLOUDY    61  54  77 SE5       29.83S
Atlanta        LGT RAIN  56  52  86 NE15      29.76S FOG
London Heathrw   N/A     41  39  93 W2        29.74S

$$

GAZ044-118-TXZ119-213-NCZ071-DCZ001-MDZ014-506-PAZ021-071-NJZ106-
NYZ176-178-MAZ106-OHZ011-021-055-MIZ076-KYZ091-ILZ014-INZ047-
MNZ060-ONZ431-200400-

...Gateway Observations for Savannah International...

CITY           SKY/WX    TMP DP  RH WIND       PRES   REMARKS
Savannah Arpt  CLOUDY    78  76  93 S14       29.69F
Atlanta        LGT RAIN  56  52  86 NE15      29.76S FOG
Charlotte      RAIN      56  53  90 NE10      29.87F FOG
Dallas DFW     CLEAR     68  55  63 NW8       29.78R
Houston Bush   PTCLDY    80  72  76 SW10G17   29.76R
Wash National  CLOUDY    58  47  66 S3        30.02S
Wash Dulles    MOCLDY    53  45  74 SE3       30.01S
Baltimore      MOCLDY    52  47  83 CALM      30.01S
Philadelphia   MOCLDY    52  45  77 SE3       30.04F
Newark         MOCLDY    53  39  59 S3        30.05R
Laguardia      MOCLDY    56  38  50 S5        30.04S
J F K          MOCLDY    54  43  66 SW10      30.06R
Boston         FAIR      53  36  52 W3        30.04S
Pittsburg      CLOUDY    52  44  74 CALM      29.88S
Akron          FAIR      52  41  66 SE5       29.87S
Cleveland      FAIR      49  41  74 S7        29.88S
Cincinnati     CLOUDY    61  45  55 S9        29.82S
Columbus       FAIR      52  42  69 SE3       29.84S
Detroit        MOCLDY    50  44  80 CALM      29.85F
Chicago O`Hare CLOUDY    60  46  59 SW6       29.74R
Minneapolis    FAIR      50  35  56 W5        29.73R
Indianapolis   FAIR      57  44  62 S3        29.79S
Toronto Canada MOCLDY    46  45  93 E12       29.92S

$$




USA.gov is the U.S. government's official web portal to all federal, state and local government web resources and services.
  • National Weather Service
  • El Paso, TX Weather Forecast Office
  • 7955 Airport Rd
  • Santa Teresa, NM 88008
  • (575) 589-4088
  • Page Author: EPZ Webmaster
  • Web Master's E-mail: sr-epz.webmaster@noaa.gov
  • Page last modified: Apr 16th, 2019 21:10 UTC